2003 GQ22
ephemeris date magn radius delta ra dec elong phase
Today5 Sep 202623.50.910 AU1.789 AU09h33m+05°40'20.1°22.3°
2003 GQ22 - 2026-09-05
astro.vanbuitenen.nl


 
-1 year
-1 month
-1 day
Now
+1 day
+1 month
+1 year

The interactive orbit chart above shows the body's path through the solar system and its position at the given date. Green and blue lines are shown perpendicular to the ecliptic plane: Green if the path is above the ecliptic plane, blue if it is below. (Left-click and drag to rotate the view; Right-click and drag to move the view; Use scroll wheel to zoom in our out.)

The orbital elements of 2003 GQ22 are:

            e (Eccentricity)                : 0.1814006
            a (Semimajor axis)              : 0.8723389
            i (Inclination)                 : 17.02469
            Ω (Longitude of ascending node) : 199.45686
            ω (Argument of perihelion)      : 168.69043
            M (Mean anomaly)                : 347.35584
            Epoch                           : 2026 Jun 09

            L (Longitude of perihelion)     : 188.63092
            B (Latitude of perihelion)      : 3.29161
            P (Orbital period in years)     : 0.81            
        

The light curve chart below shows the estimated development of the minor planet's magnitude.


The all-sky chart below shows the path of the minor planet over the same period as the light curve. The current position is marked yellow.





The following chart shows the path of the minor planet in the next few days. The field of view is optimized for (~10x50) binoculars and finderscopes.




Ephemerides:
Date       Time       RA (2000)    DEC (2000)    delta   radius  elong  phase   PA    magn
2026-09-05 00:00 UT   09 33 24.1   +05 40 57     1.789    0.910   20.1   22.3   265   23.5 
2026-09-05 20:32 UT   09 36 39.6   +05 25 40     1.792    0.913   20.0   22.2   265   23.5 
2026-09-06 00:00 UT   09 37 12.6   +05 23 05     1.793    0.913   20.0   22.2   265   23.5 
2026-09-07 00:00 UT   09 41 00.2   +05 05 12     1.797    0.917   20.0   22.1   266   23.5 
2026-09-08 00:00 UT   09 44 47.0   +04 47 18     1.800    0.920   19.9   21.9   266   23.5 
2026-09-09 00:00 UT   09 48 32.9   +04 29 24     1.804    0.923   19.9   21.8   266   23.5 
2026-09-10 00:00 UT   09 52 18.0   +04 11 31     1.807    0.926   19.9   21.7   266   23.5 
2026-09-11 00:00 UT   09 56 02.3   +03 53 37     1.810    0.928   19.8   21.6   267   23.5 
2026-09-12 00:00 UT   09 59 45.9   +03 35 44     1.814    0.931   19.8   21.5   267   23.5 
2026-09-13 00:00 UT   10 03 28.6   +03 17 51     1.817    0.934   19.8   21.4   267   23.5 


    Terminology:
            
    delta:  distance between minor planet and earth in AU
    radius: distance between minor planet and sun in AU
    magn:   magnitude (brightness) estimate    
    ra:     right ascension in hours (24h = 360deg)
    dec:    declination in degrees
    elong:  elongation in degrees (angle sun-earth-minor planet)    
    phase:  phase angle in degrees (angle sun-minor planet-earth)        
    AU:     Astronomical Unit (mean distance between earth and sun: 149597870.7 km
    

Orbital elements provided by the MPC (Minor Planet Center).
Calculations by a modified version of AAPlus, a C# implementation of the AA+ project by PJ Naughter from the algorithms presented in the book "Astronomical Algorithms" by Jean Meeus.
NGC2000 dso catalog and star labels from VizieR as provided by the Strasbourg astronomical Data Center.
Tycho2 catalog from the ESO archive.